EHI
0 0 0 0 0 0 0 0 0 0 0 0 0 0 0 0 0 0 0 0 0 0 0 0 0 0 0 0 0 0 0 0 0 0 0 0 0 0 0 0 0 0 0 0
0 0 0 0 0 0 0 0 0 0 0 0 0 0 0 0 0 0 0 0 0 0 0 0 0 0 0 0 0 0 0 0 0 0 0 0 0 0 0 0 0 0 0 0
0 0 0 0 0 0 0 0 0 0 0 0 0 0 0 0 0 0 0 0 0 0 0 0 0 0 0 0 0 0 0 0 0 0 0 0 0 0 0 0 0 0 0 0
0 0 0 0 0 0 0 0 0 0 0 0 0 0 0 0 0 0 0 0 0 0 0 0 0 0 0 0 0 0 0 0 0 0 0 0 0 0 0 0 0 0 0 0
0 0 0 0 0 0 0 0 0 0 0 0 0 0 0 0 0 0 0 0 0 0 0 0 0 0 0 0 0 0 0 0 0 0 0 0 0 0 0 0 0 0 0 0
0 0 0 0 0 0 0 0 0 0 0 0 0 0 0 0 0 0 0 0 0 0 0 0 0 0 0 0 0 0 0 0 0 0 0 0 0 0 0 0 0 0 0 0
0 0 0 0 0 0 0 0 0 0 0 0 0 0 0 0 0 0 0 0 0 0 0 0 0 0 0 0 0 0 0 0 0 0 0 0 0 0 0 0 0 0 0 0
0 0 0 0 0 0 0 0 0 0 0 0 0 0 0 0 0 0 0 0 0 0 0 0 0 0 0 0 0 0 0 0 0 0 0 0 0 0 0 0 0 0 0 0
0 0 0 0 0 0 0 0 0 0 0 0 0 0 0 0 0 0 0 0 0 0 0 0 0 0 0 0 0 0 0 0 0 0 0 0 0 0 0 0 0 0 0 0
0 0 0 0 0 0 0 0 0 0 0 0 0 0 0 0 0 0 0 0 0 0 0 0 0 0 0 0 0 0 0 0 0 0 0 0 0 0 0 0 0 0 0 0
0 0 0 0 0 0 0 0 0 0 0 0 0 0 0 0 0 0 0 0 0 0 0 0 0 0 0 0 0 0 0 0 0 0 0 0 0 0 0 0 0 0 0 0
0 0 0 0 0 0 0 0 0 0 0 0 0 0 0 0 0 0 0 0 0 0 0 0 0 0 0 0 0 0 0 0 0 0 0 0 0 0 0 0 0 0 0 0
0 0 0 0 0 0 0 0 0 0 0 0 0 0 0 0 0 0 0 0 0 0 0 0 0 0 0 0 0 0 0 0 0 0 0 0 0 0 0 0 0 0 0 0
0 0 0 0 0 0 0 0 0 0 0 0 0 0 0 0 0 0 0 0 0 0 0 0 0 0 0 0 0 0 0 0 0 0 0 0 0 0 0 0 0 0 0 0
0 0 0 0 0 0 0 0 0 0 0 0 0 0 0 0 0 0 0 0 0 0 0 0 0 0 0 0 0 0 0 0 0 0 0 0 0 0 0 0 0 0 0 0
0 0 0 0 0 0 0 0 0 0 0 0 0 0 0 0 0 0 0 0 0 0 0 0 0 0 0 0 0 0 0 0 0 0 0 0 0 0 0 0 0 0 0 0
0 0 0 0 0 0 0 0 0 0 0 0 0 0 0 0 0 0 0 0 0 0 0 0 0 0 0 0 0 0 0 0 0 0 0 0 0 0 0 0 0 0 0 0
0 0 0 0 0 0 0 0 0 0 0 0 0 0 0 0 0 0 0 0 0 0 0 0 0 0 0 0 0 0 0 0 0 0 0 0 0 0 0 0 0 0 0 0
0 0 0 0 0 0 0 0 0 0 0 0 0 0 0 0 0 0 0 0 0 0 0 0 0 0 0 0 0 0 0 0 0 0 0 0 0 0 0 0 0 0 0 0
0 0 0 0 0 0 0 0 0 0 0 0 0 0 0 0 0 0 0 0 0 0 0 0 0 0 0 0 0 0 0 0 0 0 0 0 0 0 0 0 0 0 0 0
0 0 0 0 0 0 0 0 0 0 0 0 0 0 0 0 0 0 0 0 0 0 0 0 0 0 0 0 0 0 0 0 0 0 0 0 0 0 0 0 0 0 0 0
0 0 0 0 0 0 0 0 0 0 0 0 0 0 0 0 0 0 0 0 0 0 0 0 0 0 0 0 0 0 0 0 0 0 0 0 0 0 0 0 0 0 0 0
0 0 0 0 0 0 0 0 0 0 0 0 0 0 0 0 0 0 0 0 0 0 0 0 0 0 0 0 0 0 0 0 0 0 0 0 0 0 0 0 0 0 0 0
0 0 0 0 0 0 0 0 0 0 0 0 0 0 0 0 0 0 0 0 0 0 0 0 0 0 0 0 0 0 0 0 0 0 0 0 0 0 0 0 0 0 0 0
0 0 0 0 0 0 0 0 0 0 0 0 0 0 0 0 0 0 0 0 0 0 0 0 0 0 0 0 0 0 0 0 0 0 0 0 0 0 0 0 0 0 0 0
0 0 0 0 0 0 0 0 0 0 0 0 0 0 0 0 0 0 0 0 0 0 0 0 0 0 0 0 0 0 0 0 0 0 0 0 0 0 0 0 0 0 0 0
0 0 0 0 0 0 0 0 0 0 0 0 0 0 0 0 0 0 0 0 0 0 0 0 0 0 0 0 0 0 0 0 0 0 0 0 0 0 0 0 0 0 0 0
Wind_Speed
6 6 4 6 7 8 9 9 8 7 7 7 4 2 1 1 1 1 1 0 0 0 1 1 1 1 2 1 2 2 2 2 2 2 2 2 2 2 2 2 3 3 3 3
5 6 6 8 10 10 10 9 10 10 11 6 3 1 0 0 1 1 1 1 1 1 1 1 1 1 2 2 2 2 2 2 2 2 2 2 2 2 2 2 3 3 3 3
4 1 3 9 9 9 7 6 6 10 9 3 2 2 2 2 1 2 2 2 2 2 2 2 2 1 2 2 2 1 2 2 2 2 2 2 2 2 3 3 3 3 3 3
2 1 8 7 2 4 5 5 5 4 4 2 3 2 2 1 2 2 2 2 2 2 2 2 1 1 2 2 1 1 2 2 2 2 3 3 2 2 3 3 3 3 3 3
2 4 9 4 2 3 4 5 4 6 6 4 2 2 2 1 0 1 1 1 1 1 1 1 1 1 1 2 1 2 2 3 3 3 3 3 3 3 3 3 3 3 4 3
4 5 8 4 1 1 2 4 2 3 3 2 0 2 3 1 2 2 1 1 1 1 1 1 1 1 1 2 2 3 3 3 3 3 3 4 4 4 3 3 3 4 4 3
6 6 7 3 1 3 3 6 1 2 2 2 2 3 2 2 2 2 2 1 1 1 1 1 1 1 2 2 3 3 3 3 3 3 4 4 4 3 3 3 3 4 4 4
5 6 8 2 4 5 4 0 1 1 1 1 2 2 1 1 2 2 3 2 2 2 2 2 1 1 2 3 3 3 2 3 3 4 4 3 3 3 3 3 3 4 4 4
7 7 2 4 4 2 1 0 1 0 1 1 2 2 2 2 2 2 3 2 2 2 2 2 2 1 3 4 3 3 3 3 4 4 4 3 3 3 3 3 3 3 3 4
4 4 2 3 2 1 1 1 1 0 1 0 2 3 3 2 3 3 3 2 2 2 2 3 3 3 3 3 3 3 4 4 4 3 3 3 3 3 3 3 3 3 4 4
5 4 3 2 2 2 1 1 1 1 1 1 2 3 3 3 3 2 3 2 2 2 3 4 3 3 3 3 2 3 4 4 4 3 3 3 3 3 4 4 4 5 4 4
6 3 3 3 1 0 1 2 2 1 2 1 2 3 2 2 2 2 2 2 3 3 3 4 3 4 4 3 2 3 4 4 3 3 3 3 3 4 6 7 9 10 9 8
4 3 2 3 2 1 1 2 2 1 2 2 2 1 2 2 2 2 2 3 3 3 4 4 4 4 4 3 3 3 4 4 3 3 3 3 3 3 4 5 8 9 9 10
1 1 3 2 2 2 1 1 1 1 1 1 1 1 1 2 2 2 3 3 3 3 4 3 4 5 4 3 3 4 4 5 5 3 3 3 4 4 4 4 4 4 6 9
2 2 3 2 1 1 1 1 1 1 1 1 1 1 1 2 3 3 3 4 3 3 4 3 4 5 4 3 4 4 4 3 3 3 3 3 4 4 3 4 4 4 4 5
2 1 1 1 2 2 1 1 1 2 1 1 1 1 2 2 3 3 3 3 3 4 5 4 5 5 4 3 4 4 4 7 6 3 3 3 3 3 3 3 3 3 4 4
0 1 2 2 2 2 2 2 1 1 1 1 1 1 2 2 3 3 3 3 3 4 5 5 5 5 4 4 4 3 3 4 7 4 3 3 3 3 3 3 3 4 4 5
1 1 1 2 2 2 2 1 1 1 1 1 1 1 2 2 3 4 4 4 4 5 5 5 5 5 4 4 3 3 3 3 3 3 3 3 3 3 3 3 4 4 4 5
1 1 1 1 1 0 0 1 1 1 1 1 1 2 2 3 3 4 4 4 4 5 6 5 8 5 4 5 5 2 3 3 3 3 3 5 5 3 3 3 4 4 4 4
1 1 1 2 2 1 1 1 1 1 1 1 1 2 3 3 3 3 4 4 4 4 5 6 5 4 4 4 5 2 3 3 3 3 3 3 3 3 3 4 4 4 4 4
1 1 1 1 1 1 1 0 0 1 1 1 1 2 3 4 4 3 3 4 5 5 5 7 4 4 4 4 5 2 3 3 3 3 3 3 4 4 4 4 4 5 5 5
1 1 1 1 1 1 1 1 0 1 1 2 2 2 3 4 4 4 3 3 4 8 5 3 3 6 7 6 2 2 3 3 3 3 3 3 4 4 4 5 5 5 5 5
1 1 1 1 0 1 1 1 1 1 1 2 2 3 3 3 3 3 4 4 3 7 5 4 7 10 10 5 2 3 3 3 3 3 4 4 4 4 5 5 5 5 5 5
0 1 0 1 1 1 1 2 1 1 2 2 3 3 3 3 3 2 3 7 9 9 5 7 11 11 9 4 3 3 3 4 4 4 4 4 4 4 5 5 5 5 5 6
0 0 0 0 0 1 1 1 2 2 2 2 3 3 2 2 3 3 3 4 8 8 5 8 11 11 6 4 4 4 4 4 4 4 4 4 4 5 5 5 5 5 5 5
0 0 1 1 1 1 1 1 1 2 2 3 3 2 2 2 3 3 3 4 5 8 6 4 5 6 4 4 4 4 4 5 6 5 5 5 5 5 5 5 6 5 5 5
0 0 0 1 1 1 1 1 2 2 2 3 3 3 3 3 3 3 4 4 4 4 4 4 4 4 4 4 4 4 4 4 5 5 5 5 5 5 5 6 6 6 5 6
Wind_Direction
262 275 247 242 231 210 214 221 229 246 247 256 262 252 222 173 155 150 142 107 19 317 314 322 354 351 342 332 337 333 322 313 313 320 323 326 324 323 322 319 314 310 308 306
266 253 252 261 247 227 227 232 241 258 266 270 285 327 349 287 173 203 234 261 280 297 317 314 308 305 315 305 308 317 309 304 314 326 326 326 325 324 321 313 308 310 308 302
258 271 303 261 235 215 213 213 209 235 247 257 266 259 251 240 232 241 248 259 262 265 270 283 277 279 274 283 288 283 285 298 309 316 312 307 309 313 305 301 303 300 301 301
265 303 245 240 198 188 193 225 218 234 259 262 246 262 258 210 224 262 280 275 266 270 282 283 283 293 285 279 268 268 281 290 297 297 296 304 305 299 296 298 298 291 294 297
226 250 265 264 210 167 187 253 230 232 258 274 307 320 294 327 253 255 264 276 274 274 268 271 276 280 286 277 261 259 268 276 283 283 284 287 287 288 296 294 291 289 287 289
221 237 251 253 214 136 114 268 246 208 237 264 10 276 272 355 15 2 358 350 326 323 313 288 286 272 260 268 263 263 269 276 279 276 274 272 273 282 290 287 286 285 287 287
229 241 258 253 185 125 167 251 236 170 191 193 207 231 272 2 7 4 355 352 356 339 299 282 290 277 262 267 265 271 282 284 282 279 273 266 269 280 283 284 284 280 282 283
203 226 248 173 140 180 213 258 113 149 171 205 250 286 312 333 336 341 341 341 345 333 317 320 317 291 283 281 289 288 283 282 282 282 278 274 267 274 275 271 274 276 278 282
200 218 211 161 181 198 138 114 338 345 331 280 280 291 304 314 322 324 322 324 334 325 317 321 316 294 282 295 307 301 290 283 283 284 280 277 267 265 266 261 263 273 274 281
253 255 235 203 205 244 250 239 304 297 278 278 273 287 301 305 309 313 314 316 321 320 309 308 310 305 286 297 306 302 289 284 279 277 278 275 268 262 259 255 259 267 271 277
254 275 295 251 240 252 270 295 307 310 271 245 254 272 279 288 293 300 312 317 315 302 293 294 303 301 303 307 306 300 293 286 282 276 273 273 272 264 268 255 255 263 263 265
240 239 236 256 283 340 260 271 267 277 294 288 244 260 276 283 288 295 302 309 310 305 303 301 302 300 302 300 293 290 293 290 283 279 275 273 277 288 282 281 283 280 278 276
247 282 273 272 302 355 298 291 291 262 258 286 295 269 275 289 299 301 303 302 296 296 296 296 297 297 300 299 293 281 280 285 283 280 278 276 274 277 290 293 284 283 287 286
280 302 280 275 285 310 303 318 337 331 309 276 293 309 303 305 309 307 301 298 296 295 292 289 292 294 296 296 291 283 280 284 286 275 274 274 274 273 274 281 292 292 292 292
285 279 261 294 331 333 336 352 333 310 316 323 323 321 323 315 308 305 304 305 308 302 297 297 297 296 301 294 288 283 282 277 275 273 271 273 275 275 275 278 284 293 299 295
311 313 285 279 286 295 308 303 284 288 310 331 335 331 326 314 305 304 306 310 312 306 305 302 295 294 296 291 290 286 279 286 290 284 278 278 278 276 275 278 284 287 288 292
231 285 294 297 293 294 286 279 271 286 310 310 312 330 332 324 318 315 320 321 309 299 298 296 294 299 295 289 283 282 280 284 291 290 276 272 272 271 271 274 277 280 281 285
221 252 252 253 271 286 307 328 338 339 325 324 342 343 329 318 312 315 319 322 319 312 306 301 299 301 299 293 282 280 283 281 280 281 279 274 274 269 269 271 273 276 283 290
2 340 338 349 357 6 323 318 323 336 340 351 346 324 313 306 303 307 315 320 317 311 313 310 311 315 306 297 299 286 287 288 287 285 284 285 289 281 274 274 275 276 280 283
14 23 28 23 25 31 8 357 11 356 341 354 338 319 313 308 308 311 314 304 293 287 301 312 317 314 307 298 305 291 286 287 287 288 287 282 283 283 279 278 278 279 279 278
8 21 26 23 12 11 359 2 18 333 329 331 300 293 298 305 309 309 310 306 306 305 307 316 321 311 301 301 305 297 290 288 289 287 287 286 285 284 284 282 281 281 280 279
25 36 16 16 19 348 344 352 336 313 316 313 302 299 305 309 312 307 292 281 298 315 323 314 309 310 314 313 305 298 294 292 291 290 288 287 287 286 285 285 284 283 282 281
43 46 23 1 340 332 346 342 309 290 291 295 296 295 292 294 299 302 305 306 304 313 321 310 311 315 321 324 309 295 291 290 288 285 285 284 283 282 283 282 282 284 284 285
57 56 41 30 41 12 333 321 313 303 293 290 287 283 284 295 298 287 284 308 318 320 321 316 321 322 326 327 313 304 295 290 287 285 284 282 281 281 281 281 282 282 283 284
75 82 96 104 294 292 304 319 325 317 311 305 304 299 287 277 282 298 303 303 311 320 319 317 319 324 329 320 316 310 304 294 290 289 284 286 285 284 283 282 281 282 283 284
182 222 241 246 247 265 292 308 310 313 318 317 315 315 311 302 293 294 299 302 304 315 318 313 314 317 316 312 306 303 299 302 305 301 294 291 288 287 287 287 285 284 285 285
175 223 266 298 300 295 302 300 298 302 305 302 305 308 307 307 306 309 309 308 310 310 307 306 306 305 303 302 301 300 298 296 294 292 292 289 287 285 285 286 286 285 285 284